• En España
  • Lista de países
  • Para 7 días
  • Temperatura del agua
  • Mapa Satelital
  • El tiempo en el mapa
  • Informadores
  • user-avatar
    Iniciar sesión

    Tiempo cada hora San Luis

    Hoy, 19 Octubre, Viernes

    Tiempo Temperatura Precipitaciones Viento Presión Humedad
    00:00 +18°C° 0 mm 8 mps 702 mmHg 79%
    01:00 +18°C° 0 mm 8 mps 702 mmHg 79%
    02:00 +17°C° 0 mm 7 mps 702 mmHg 79%
    03:00 +17°C° 0 mm 7 mps 702 mmHg 79%
    04:00 +17°C° 0 mm 7 mps 702 mmHg 79%
    05:00 +17°C° 0 mm 6 mps 702 mmHg 79%
    06:00 +19°C° 0.2 mm 6 mps 702 mmHg 76%
    07:00 +19°C° 0.2 mm 6 mps 702 mmHg 73%
    08:00 +20°C° 0.2 mm 6 mps 702 mmHg 70%
    09:00 +20°C° 0.7 mm 6 mps 702 mmHg 71%
    10:00 +20°C° 0.7 mm 5 mps 702 mmHg 71%
    11:00 +20°C° 0.7 mm 5 mps 702 mmHg 72%
    12:00 +21°C° 0.2 mm 5 mps 702 mmHg 65%
    13:00 +22°C° 0.2 mm 5 mps 702 mmHg 57%
    14:00 +25°C° 0.2 mm 5 mps 702 mmHg 50%
    15:00 +25°C° 0.1 mm 5 mps 701 mmHg 50%
    16:00 +23°C° 0.1 mm 5 mps 701 mmHg 50%
    17:00 +23°C° 0.1 mm 5 mps 700 mmHg 51%
    18:00 +22°C° 0.4 mm 5 mps 701 mmHg 56%
    19:00 +21°C° 0.4 mm 5 mps 701 mmHg 61%
    20:00 +20°C° 0.4 mm 5 mps 701 mmHg 66%
    21:00 +20°C° 0.4 mm 5 mps 701 mmHg 68%
    22:00 +19°C° 0.4 mm 4 mps 701 mmHg 70%
    23:00 +19°C° 0.4 mm 4 mps 701 mmHg 72%

    Mañana, 20 Octubre, Sábado

    Tiempo Temperatura Precipitaciones Viento Presión Humedad
    00:00 +19°C° 0.2 mm 4 mps 701 mmHg 73%
    01:00 +19°C° 0.2 mm 3 mps 700 mmHg 73%
    02:00 +18°C° 0.2 mm 3 mps 700 mmHg 74%
    03:00 +18°C° 0.1 mm 3 mps 700 mmHg 75%
    04:00 +18°C° 0.1 mm 3 mps 700 mmHg 77%
    05:00 +18°C° 0.1 mm 3 mps 699 mmHg 78%
    06:00 +19°C° 0.5 mm 3 mps 700 mmHg 78%
    07:00 +19°C° 0.5 mm 3 mps 700 mmHg 79%
    08:00 +19°C° 0.5 mm 4 mps 700 mmHg 79%
    09:00 +19°C° 0.6 mm 4 mps 700 mmHg 77%
    10:00 +20°C° 0.6 mm 4 mps 700 mmHg 75%
    11:00 +20°C° 0.6 mm 4 mps 700 mmHg 74%
    12:00 +22°C° 0.4 mm 4 mps 699 mmHg 69%
    13:00 +23°C° 0.4 mm 4 mps 699 mmHg 64%
    14:00 +25°C° 0.4 mm 4 mps 698 mmHg 58%
    15:00 +25°C° 0.2 mm 3 mps 698 mmHg 57%
    16:00 +25°C° 0.2 mm 3 mps 698 mmHg 56%
    17:00 +25°C° 0.2 mm 3 mps 697 mmHg 55%
    18:00 +24°C° 0 mm 3 mps 697 mmHg 61%
    19:00 +22°C° 0 mm 3 mps 698 mmHg 66%
    20:00 +21°C° 0 mm 4 mps 698 mmHg 71%
    21:00 +20°C° 0 mm 4 mps 698 mmHg 73%
    22:00 +20°C° 0 mm 4 mps 698 mmHg 76%
    23:00 +19°C° 0 mm 3 mps 698 mmHg 78%

    Pasado mañana, 21 Octubre, Domingo

    Tiempo Temperatura Precipitaciones Viento Presión Humedad
    00:00 +19°C° 0 mm 3 mps 698 mmHg 78%
    01:00 +19°C° 0 mm 4 mps 697 mmHg 79%
    02:00 +19°C° 0 mm 4 mps 697 mmHg 80%
    03:00 +18°C° 0.1 mm 3 mps 697 mmHg 80%
    04:00 +18°C° 0.1 mm 3 mps 697 mmHg 80%
    05:00 +18°C° 0.1 mm 3 mps 697 mmHg 81%
    06:00 +19°C° 0 mm 3 mps 697 mmHg 74%
    07:00 +21°C° 0 mm 3 mps 698 mmHg 67%
    08:00 +22°C° 0 mm 4 mps 698 mmHg 60%
    09:00 +23°C° 0.1 mm 4 mps 698 mmHg 55%
    10:00 +26°C° 0.1 mm 4 mps 699 mmHg 50%
    11:00 +27°C° 0.1 mm 4 mps 699 mmHg 45%
    12:00 +27°C° 0.3 mm 4 mps 698 mmHg 45%
    13:00 +27°C° 0.3 mm 4 mps 698 mmHg 45%
    14:00 +27°C° 0.3 mm 4 mps 697 mmHg 45%
    15:00 +27°C° 0.2 mm 4 mps 697 mmHg 48%
    16:00 +27°C° 0.2 mm 5 mps 696 mmHg 50%
    17:00 +26°C° 0.2 mm 6 mps 696 mmHg 52%
    18:00 +24°C° 0.1 mm 6 mps 696 mmHg 58%
    19:00 +23°C° 0.1 mm 7 mps 697 mmHg 63%
    20:00 +22°C° 0.1 mm 7 mps 697 mmHg 69%
    21:00 +21°C° 0.5 mm 6 mps 697 mmHg 73%
    22:00 +20°C° 0.5 mm 6 mps 697 mmHg 78%
    23:00 +19°C° 0.5 mm 6 mps 698 mmHg 83%

    22 Octubre, Lunes

    Tiempo Temperatura Precipitaciones Viento Presión Humedad
    00:00 +19°C° 0.5 mm 5 mps 697 mmHg 84%
    01:00 +17°C° 0.5 mm 5 mps 697 mmHg 85%
    02:00 +17°C° 0.5 mm 5 mps 696 mmHg 87%
    03:00 +17°C° 0.4 mm 5 mps 697 mmHg 87%
    04:00 +17°C° 0.4 mm 5 mps 697 mmHg 87%
    05:00 +17°C° 0.4 mm 5 mps 697 mmHg 88%
    06:00 +17°C° 0.2 mm 5 mps 697 mmHg 85%
    07:00 +17°C° 0.2 mm 5 mps 698 mmHg 83%
    08:00 +19°C° 0.2 mm 5 mps 698 mmHg 80%
    09:00 +20°C° 0.2 mm 5 mps 698 mmHg 77%
    10:00 +20°C° 0.2 mm 5 mps 699 mmHg 74%
    11:00 +21°C° 0.2 mm 5 mps 699 mmHg 71%
    12:00 +21°C° 0.1 mm 6 mps 698 mmHg 71%
    13:00 +21°C° 0.1 mm 7 mps 698 mmHg 70%
    14:00 +21°C° 0.1 mm 8 mps 698 mmHg 69%
    15:00 +20°C° 0 mm 8 mps 698 mmHg 70%
    16:00 +18°C° 0 mm 8 mps 698 mmHg 72%
    17:00 +18°C° 0 mm 8 mps 698 mmHg 73%
    18:00 +17°C° 0 mm 8 mps 698 mmHg 75%
    19:00 +16°C° 0 mm 8 mps 699 mmHg 77%
    20:00 +16°C° 0 mm 8 mps 699 mmHg 80%
    21:00 +15°C° 0 mm 8 mps 700 mmHg 80%
    22:00 +15°C° 0 mm 8 mps 700 mmHg 81%
    23:00 +15°C° 0 mm 8 mps 701 mmHg 81%

    23 Octubre, Martes

    Tiempo Temperatura Precipitaciones Viento Presión Humedad
    00:00 +15°C° 0 mm 8 mps 701 mmHg 81%
    01:00 +15°C° 0 mm 8 mps 701 mmHg 80%
    02:00 +15°C° 0 mm 8 mps 701 mmHg 80%
    03:00 +13°C° 0 mm 8 mps 701 mmHg 80%
    04:00 +13°C° 0 mm 8 mps 701 mmHg 80%
    05:00 +13°C° 0 mm 8 mps 701 mmHg 80%
    06:00 +13°C° 0.1 mm 8 mps 701 mmHg 77%
    07:00 +15°C° 0.1 mm 8 mps 702 mmHg 74%
    08:00 +16°C° 0.1 mm 8 mps 703 mmHg 71%
    09:00 +16°C° 0.1 mm 7 mps 702 mmHg 71%
    10:00 +16°C° 0.1 mm 7 mps 702 mmHg 70%
    11:00 +16°C° 0.1 mm 7 mps 702 mmHg 69%
    12:00 +17°C° 0.1 mm 6 mps 702 mmHg 67%
    13:00 +17°C° 0.1 mm 6 mps 701 mmHg 65%
    14:00 +19°C° 0.1 mm 6 mps 701 mmHg 63%
    15:00 +20°C° 0 mm 6 mps 700 mmHg 61%
    16:00 +21°C° 0 mm 6 mps 700 mmHg 58%
    17:00 +21°C° 0 mm 7 mps 700 mmHg 55%
    18:00 +21°C° 0.1 mm 6 mps 700 mmHg 59%
    19:00 +20°C° 0.1 mm 6 mps 700 mmHg 63%
    20:00 +19°C° 0.1 mm 5 mps 700 mmHg 66%
    21:00 +19°C° 0.1 mm 5 mps 700 mmHg 68%
    22:00 +17°C° 0.1 mm 5 mps 700 mmHg 70%
    23:00 +17°C° 0.1 mm 5 mps 700 mmHg 72%

    24 Octubre, Miércoles

    Tiempo Temperatura Precipitaciones Viento Presión Humedad
    00:00 +17°C° 0.1 mm 5 mps 699 mmHg 72%
    01:00 +17°C° 0.1 mm 5 mps 699 mmHg 72%
    02:00 +17°C° 0.1 mm 5 mps 698 mmHg 72%
    03:00 +16°C° 0 mm 5 mps 698 mmHg 73%
    04:00 +15°C° 0 mm 5 mps 698 mmHg 74%
    05:00 +15°C° 0 mm 5 mps 698 mmHg 75%
    06:00 +16°C° 0 mm 5 mps 698 mmHg 69%
    07:00 +17°C° 0 mm 6 mps 699 mmHg 64%
    08:00 +20°C° 0 mm 6 mps 699 mmHg 59%
    09:00 +21°C° 0 mm 6 mps 699 mmHg 57%
    10:00 +22°C° 0 mm 7 mps 699 mmHg 55%
    11:00 +23°C° 0 mm 7 mps 698 mmHg 52%
    12:00 +24°C° 0 mm 7 mps 698 mmHg 51%
    13:00 +24°C° 0 mm 7 mps 697 mmHg 50%
    14:00 +26°C° 0 mm 7 mps 696 mmHg 48%
    15:00 +26°C° 0 mm 7 mps 696 mmHg 48%
    16:00 +26°C° 0 mm 6 mps 696 mmHg 48%
    17:00 +26°C° 0 mm 6 mps 695 mmHg 48%
    18:00 +25°C° 0 mm 5 mps 695 mmHg 54%
    19:00 +22°C° 0 mm 5 mps 695 mmHg 61%
    20:00 +21°C° 0 mm 4 mps 695 mmHg 67%
    21:00 +20°C° 0 mm 5 mps 695 mmHg 68%
    22:00 +20°C° 0 mm 6 mps 695 mmHg 69%
    23:00 +20°C° 0 mm 6 mps 695 mmHg 70%
    Mostrar más